Time,TemperatureF,DewpointF,PressureIn,WindDirection,WindDirectionDegrees,WindSpeedMPH,WindSpeedGustMPH,Humidity,HourlyPrecipIn,Conditions,Clouds,dailyrainin,SoftwareType,DateUTC
2013-08-06 00:01:00,62.1,50.6,30.05,NW,325,0.0,0.0,66,0.00,,,0.00,WeatherCatV1.15B25,2013-08-06 04:01:00,
2013-08-06 00:06:00,62.1,50.2,30.04,NW,325,0.0,0.0,65,0.00,,,0.00,WeatherCatV1.15B25,2013-08-06 04:06:00,
2013-08-06 00:11:00,62.1,50.6,30.04,NW,325,0.0,0.0,66,0.00,,,0.00,WeatherCatV1.15B25,2013-08-06 04:11:00,
2013-08-06 00:16:00,62.1,50.2,30.04,NW,325,0.0,0.0,65,0.00,,,0.00,WeatherCatV1.15B25,2013-08-06 04:16:00,
2013-08-06 00:21:00,62.1,50.2,30.04,NW,325,0.0,0.0,65,0.00,,,0.00,WeatherCatV1.15B25,2013-08-06 04:21:00,
2013-08-06 00:26:00,62.2,50.3,30.05,NW,325,0.0,0.0,65,0.00,,,0.00,WeatherCatV1.15B25,2013-08-06 04:26:00,
2013-08-06 00:31:00,62.3,50.4,30.04,NW,325,0.0,0.0,65,0.00,,,0.00,WeatherCatV1.15B25,2013-08-06 04:31:00,
2013-08-06 00:36:00,62.3,50.0,30.04,NW,323,0.0,0.0,64,0.00,,,0.00,WeatherCatV1.15B25,2013-08-06 04:36:00,
2013-08-06 00:41:00,62.3,49.5,30.04,NW,325,0.0,0.0,63,0.00,,,0.00,WeatherCatV1.15B25,2013-08-06 04:41:00,
2013-08-06 00:46:00,62.2,49.9,30.04,NW,325,0.0,0.0,64,0.00,,,0.00,WeatherCatV1.15B25,2013-08-06 04:46:00,
2013-08-06 00:51:00,62.2,49.4,30.04,NW,325,0.0,0.0,63,0.00,,,0.00,WeatherCatV1.15B25,2013-08-06 04:51:00,
2013-08-06 00:56:00,62.1,49.3,30.04,NW,325,0.0,0.0,63,0.00,,,0.00,WeatherCatV1.15B25,2013-08-06 04:56:00,
2013-08-06 01:01:00,62.0,49.7,30.04,NW,325,0.0,0.0,64,0.00,,,0.00,WeatherCatV1.15B25,2013-08-06 05:01:00,
2013-08-06 01:06:00,62.0,49.3,30.04,NW,325,0.0,0.0,63,0.00,,,0.00,WeatherCatV1.15B25,2013-08-06 05:06:00,
2013-08-06 01:11:00,61.9,49.2,30.05,NW,325,0.0,0.0,63,0.00,,,0.00,WeatherCatV1.15B25,2013-08-06 05:11:00,
2013-08-06 01:16:00,61.8,49.5,30.04,NW,325,0.0,0.0,64,0.00,,,0.00,WeatherCatV1.15B25,2013-08-06 05:16:00,
2013-08-06 01:21:00,61.8,49.1,30.04,NW,325,0.0,0.0,63,0.00,,,0.00,WeatherCatV1.15B25,2013-08-06 05:21:00,
2013-08-06 01:26:00,61.8,48.6,30.04,NW,325,0.0,0.0,62,0.00,,,0.00,WeatherCatV1.15B25,2013-08-06 05:26:00,
2013-08-06 01:31:00,61.8,48.6,30.04,NW,325,0.0,0.0,62,0.00,,,0.00,WeatherCatV1.15B25,2013-08-06 05:31:00,
2013-08-06 01:36:00,61.6,48.9,30.05,NW,325,0.0,0.0,63,0.00,,,0.00,WeatherCatV1.15B25,2013-08-06 05:36:00,
2013-08-06 01:41:00,61.4,48.7,30.04,NW,325,0.0,0.0,63,0.00,,,0.00,WeatherCatV1.15B25,2013-08-06 05:41:00,
2013-08-06 01:46:00,61.2,48.1,30.04,NW,325,0.0,0.0,62,0.00,,,0.00,WeatherCatV1.15B25,2013-08-06 05:46:00,
2013-08-06 01:51:00,61.2,48.9,30.04,NW,325,0.0,0.0,64,0.00,,,0.00,WeatherCatV1.15B25,2013-08-06 05:51:00,
2013-08-06 01:56:00,60.9,49.9,30.04,NW,325,0.0,0.0,67,0.00,,,0.00,WeatherCatV1.15B25,2013-08-06 05:56:00,
2013-08-06 02:01:00,60.5,50.3,30.04,NW,325,0.0,0.0,69,0.00,,,0.00,WeatherCatV1.15B25,2013-08-06 06:01:00,
2013-08-06 02:06:00,60.2,50.0,30.05,NW,325,0.0,0.0,69,0.00,,,0.00,WeatherCatV1.15B25,2013-08-06 06:06:00,
2013-08-06 02:11:00,60.2,49.6,30.05,NW,325,0.0,0.0,68,0.00,,,0.00,WeatherCatV1.15B25,2013-08-06 06:11:00,
2013-08-06 02:16:00,60.2,49.2,30.04,NW,325,0.0,0.0,67,0.00,,,0.00,WeatherCatV1.15B25,2013-08-06 06:16:00,
2013-08-06 02:21:00,60.2,49.2,30.04,NW,325,0.0,0.0,67,0.00,,,0.00,WeatherCatV1.15B25,2013-08-06 06:21:00,
2013-08-06 02:26:00,60.4,49.0,30.04,NW,325,0.0,1.0,66,0.00,,,0.00,WeatherCatV1.15B25,2013-08-06 06:26:00,
2013-08-06 02:31:00,60.7,49.3,30.05,NW,325,0.0,0.0,66,0.00,,,0.00,WeatherCatV1.15B25,2013-08-06 06:31:00,
2013-08-06 02:36:00,60.9,49.5,30.05,NW,325,0.0,0.0,66,0.00,,,0.00,WeatherCatV1.15B25,2013-08-06 06:36:00,
2013-08-06 02:41:00,61.0,49.1,30.05,NW,325,0.0,0.0,65,0.00,,,0.00,WeatherCatV1.15B25,2013-08-06 06:41:00,
2013-08-06 02:46:00,61.2,48.9,30.05,NW,325,0.0,0.0,64,0.00,,,0.00,WeatherCatV1.15B25,2013-08-06 06:46:00,
2013-08-06 02:51:00,61.4,49.1,30.05,NW,325,0.0,0.0,64,0.00,,,0.00,WeatherCatV1.15B25,2013-08-06 06:51:00,
2013-08-06 02:56:00,61.5,49.6,30.05,NW,325,0.0,0.0,65,0.00,,,0.00,WeatherCatV1.15B25,2013-08-06 06:56:00,
2013-08-06 03:01:00,61.4,49.1,30.05,NW,325,0.0,0.0,64,0.00,,,0.00,WeatherCatV1.15B25,2013-08-06 07:01:00,
2013-08-06 03:06:00,61.4,49.1,30.05,NW,325,0.0,0.0,64,0.00,,,0.00,WeatherCatV1.15B25,2013-08-06 07:06:00,
2013-08-06 03:11:00,61.3,49.0,30.04,NW,325,0.0,0.0,64,0.00,,,0.00,WeatherCatV1.15B25,2013-08-06 07:11:00,
2013-08-06 03:16:00,61.2,49.3,30.04,NW,325,0.0,0.0,65,0.00,,,0.00,WeatherCatV1.15B25,2013-08-06 07:16:00,
2013-08-06 03:21:00,61.2,49.3,30.05,NW,325,0.0,0.0,65,0.00,,,0.00,WeatherCatV1.15B25,2013-08-06 07:21:00,
2013-08-06 03:26:00,61.2,49.3,30.05,NW,325,0.0,0.0,65,0.00,,,0.00,WeatherCatV1.15B25,2013-08-06 07:26:00,
2013-08-06 03:31:00,61.1,49.2,30.05,NW,325,0.0,0.0,65,0.00,,,0.00,WeatherCatV1.15B25,2013-08-06 07:31:00,
2013-08-06 03:36:00,61.1,49.2,30.05,NW,325,0.0,0.0,65,0.00,,,0.00,WeatherCatV1.15B25,2013-08-06 07:36:00,
2013-08-06 03:41:00,60.8,49.4,30.05,NW,325,0.0,0.0,66,0.00,,,0.00,WeatherCatV1.15B25,2013-08-06 07:41:00,
2013-08-06 03:46:00,60.6,49.2,30.05,NW,325,0.0,0.0,66,0.00,,,0.00,WeatherCatV1.15B25,2013-08-06 07:46:00,
2013-08-06 03:51:00,60.4,49.4,30.05,NW,325,0.0,0.0,67,0.00,,,0.00,WeatherCatV1.15B25,2013-08-06 07:51:00,
2013-08-06 03:56:00,60.2,50.4,30.05,NW,325,0.0,0.0,70,0.00,,,0.00,WeatherCatV1.15B25,2013-08-06 07:56:00,
2013-08-06 04:01:00,59.8,50.0,30.05,NW,325,0.0,0.0,70,0.00,,,0.00,WeatherCatV1.15B25,2013-08-06 08:01:00,
2013-08-06 04:06:00,59.5,49.7,30.05,NW,325,0.0,0.0,70,0.00,,,0.00,WeatherCatV1.15B25,2013-08-06 08:06:00,
2013-08-06 04:11:00,59.5,49.3,30.05,NW,325,0.0,0.0,69,0.00,,,0.00,WeatherCatV1.15B25,2013-08-06 08:11:00,
2013-08-06 04:16:00,59.8,49.6,30.05,NW,325,0.0,0.0,69,0.00,,,0.00,WeatherCatV1.15B25,2013-08-06 08:16:00,
2013-08-06 04:21:00,60.1,49.5,30.05,NW,325,0.0,0.0,68,0.00,,,0.00,WeatherCatV1.15B25,2013-08-06 08:21:00,
2013-08-06 04:26:00,60.4,49.8,30.05,NW,325,0.0,0.0,68,0.00,,,0.00,WeatherCatV1.15B25,2013-08-06 08:26:00,
2013-08-06 04:31:00,60.5,49.5,30.05,NW,325,0.0,0.0,67,0.00,,,0.00,WeatherCatV1.15B25,2013-08-06 08:31:00,
2013-08-06 04:36:00,60.6,50.0,30.05,NW,325,0.0,0.0,68,0.00,,,0.00,WeatherCatV1.15B25,2013-08-06 08:36:00,
2013-08-06 04:41:00,60.6,49.6,30.05,NW,325,0.0,0.0,67,0.00,,,0.00,WeatherCatV1.15B25,2013-08-06 08:41:00,
2013-08-06 04:46:00,60.6,49.6,30.06,NW,325,0.0,0.0,67,0.00,,,0.00,WeatherCatV1.15B25,2013-08-06 08:46:00,
2013-08-06 04:51:00,60.7,49.7,30.06,NW,325,0.0,0.0,67,0.00,,,0.00,WeatherCatV1.15B25,2013-08-06 08:51:00,
2013-08-06 04:56:00,60.6,49.6,30.06,NW,325,0.0,0.0,67,0.00,,,0.00,WeatherCatV1.15B25,2013-08-06 08:56:00,
2013-08-06 05:01:00,60.4,49.4,30.06,NW,325,0.0,0.0,67,0.00,,,0.00,WeatherCatV1.15B25,2013-08-06 09:01:00,
2013-08-06 05:06:00,60.2,49.6,30.06,NW,325,0.0,0.0,68,0.00,,,0.00,WeatherCatV1.15B25,2013-08-06 09:06:00,
2013-08-06 05:11:00,60.1,49.5,30.06,NW,325,0.0,0.0,68,0.00,,,0.00,WeatherCatV1.15B25,2013-08-06 09:11:00,
2013-08-06 05:16:00,60.0,49.4,30.06,NW,325,0.0,0.0,68,0.00,,,0.00,WeatherCatV1.15B25,2013-08-06 09:16:00,
2013-08-06 05:21:00,60.0,49.4,30.06,NW,325,0.0,0.0,68,0.00,,,0.00,WeatherCatV1.15B25,2013-08-06 09:21:00,
2013-08-06 05:26:00,60.1,49.5,30.06,NW,325,0.0,0.0,68,0.00,,,0.00,WeatherCatV1.15B25,2013-08-06 09:26:00,
2013-08-06 05:31:00,60.2,49.6,30.06,NW,325,0.0,0.0,68,0.00,,,0.00,WeatherCatV1.15B25,2013-08-06 09:31:00,
2013-08-06 05:36:00,60.3,49.3,30.06,NW,325,0.0,0.0,67,0.00,,,0.00,WeatherCatV1.15B25,2013-08-06 09:36:00,
2013-08-06 05:41:00,60.3,49.7,30.06,NW,325,0.0,0.0,68,0.00,,,0.00,WeatherCatV1.15B25,2013-08-06 09:41:00,
2013-08-06 05:46:00,60.4,49.8,30.06,NW,325,0.0,0.0,68,0.00,,,0.00,WeatherCatV1.15B25,2013-08-06 09:46:00,
2013-08-06 05:50:00,60.3,49.7,30.06,NW,325,0.0,0.0,68,0.00,,,0.00,WeatherCatV1.15B25,2013-08-06 09:50:00,
2013-08-06 05:55:00,60.2,49.6,30.07,NW,325,0.0,0.0,68,0.00,,,0.00,WeatherCatV1.15B25,2013-08-06 09:55:00,
2013-08-06 06:00:00,60.2,49.6,30.07,NW,325,0.0,0.0,68,0.00,,,0.00,WeatherCatV1.15B25,2013-08-06 10:00:00,
2013-08-06 06:05:00,60.1,49.5,30.07,NW,325,0.0,0.0,68,0.00,,,0.00,WeatherCatV1.15B25,2013-08-06 10:05:00,
2013-08-06 06:10:00,60.1,49.5,30.07,NW,325,0.0,0.0,68,0.00,,,0.00,WeatherCatV1.15B25,2013-08-06 10:10:00,
2013-08-06 06:15:00,59.9,49.7,30.07,NW,325,0.0,0.0,69,0.00,,,0.00,WeatherCatV1.15B25,2013-08-06 10:15:00,
2013-08-06 06:20:00,59.7,49.5,30.07,NW,325,0.0,0.0,69,0.00,,,0.00,WeatherCatV1.15B25,2013-08-06 10:20:00,
2013-08-06 06:25:00,59.5,49.3,30.07,NW,325,0.0,0.0,69,0.00,,,0.00,WeatherCatV1.15B25,2013-08-06 10:25:00,
2013-08-06 06:30:00,59.4,49.6,30.07,NW,325,0.0,0.0,70,0.00,,,0.00,WeatherCatV1.15B25,2013-08-06 10:30:00,
2013-08-06 06:35:00,59.4,50.0,30.07,NW,325,0.0,0.0,71,0.00,,,0.00,WeatherCatV1.15B25,2013-08-06 10:35:00,
2013-08-06 06:40:00,59.4,50.7,30.08,NW,325,0.0,0.0,73,0.00,,,0.00,WeatherCatV1.15B25,2013-08-06 10:40:00,
2013-08-06 06:45:00,59.0,51.1,30.08,NW,325,0.0,0.0,75,0.00,,,0.00,WeatherCatV1.15B25,2013-08-06 10:45:00,
2013-08-06 06:50:00,59.0,51.1,30.08,NW,325,0.0,0.0,75,0.00,,,0.00,WeatherCatV1.15B25,2013-08-06 10:50:00,
2013-08-06 06:55:00,59.0,51.8,30.08,NW,325,0.0,0.0,77,0.00,,,0.00,WeatherCatV1.15B25,2013-08-06 10:55:00,
2013-08-06 07:00:00,59.0,51.4,30.08,NW,325,0.0,0.0,76,0.00,,,0.00,WeatherCatV1.15B25,2013-08-06 11:00:00,
2013-08-06 07:05:00,59.0,51.8,30.08,NW,325,0.0,0.0,77,0.00,,,0.00,WeatherCatV1.15B25,2013-08-06 11:05:00,
2013-08-06 07:10:00,59.0,52.1,30.08,NW,325,0.0,0.0,78,0.00,,,0.00,WeatherCatV1.15B25,2013-08-06 11:10:00,
2013-08-06 07:15:00,59.0,52.8,30.08,NW,325,0.0,0.0,80,0.00,,,0.00,WeatherCatV1.15B25,2013-08-06 11:15:00,
2013-08-06 07:20:00,59.0,53.5,30.08,NW,325,0.0,0.0,82,0.00,,,0.00,WeatherCatV1.15B25,2013-08-06 11:20:00,
2013-08-06 07:25:00,59.0,53.8,30.08,NW,325,0.0,0.0,83,0.00,,,0.00,WeatherCatV1.15B25,2013-08-06 11:25:00,
2013-08-06 07:30:00,59.0,54.2,30.08,NW,325,0.0,0.0,84,0.00,,,0.00,WeatherCatV1.15B25,2013-08-06 11:30:00,
2013-08-06 07:35:00,58.9,53.7,30.08,NW,325,0.0,0.0,83,0.00,,,0.00,WeatherCatV1.15B25,2013-08-06 11:35:00,
2013-08-06 07:40:00,59.0,54.2,30.08,NW,325,0.0,0.0,84,0.00,,,0.00,WeatherCatV1.15B25,2013-08-06 11:40:00,
2013-08-06 07:45:00,59.0,54.5,30.08,NW,325,0.0,0.0,85,0.00,,,0.00,WeatherCatV1.15B25,2013-08-06 11:45:00,
2013-08-06 07:50:00,59.0,54.5,30.08,NW,325,0.0,0.0,85,0.00,,,0.00,WeatherCatV1.15B25,2013-08-06 11:50:00,
2013-08-06 07:55:00,59.0,54.8,30.08,NW,325,0.0,0.0,86,0.00,,,0.00,WeatherCatV1.15B25,2013-08-06 11:55:00,
2013-08-06 08:00:00,59.4,55.2,30.08,NW,325,0.0,0.0,86,0.00,,,0.00,WeatherCatV1.15B25,2013-08-06 12:00:00,
2013-08-06 08:05:00,59.9,55.7,30.08,NW,325,0.0,0.0,86,0.00,,,0.00,WeatherCatV1.15B25,2013-08-06 12:05:00,
2013-08-06 08:10:00,60.5,55.6,30.08,NW,325,0.0,0.0,84,0.00,,,0.00,WeatherCatV1.15B25,2013-08-06 12:10:00,
2013-08-06 08:15:00,60.8,55.3,30.08,NW,325,0.0,0.0,82,0.00,,,0.00,WeatherCatV1.15B25,2013-08-06 12:15:00,
2013-08-06 08:20:00,61.0,55.8,30.08,NW,325,0.0,0.0,83,0.00,,,0.00,WeatherCatV1.15B25,2013-08-06 12:20:00,
2013-08-06 08:25:00,61.3,55.8,30.08,NW,325,0.0,0.0,82,0.00,,,0.00,WeatherCatV1.15B25,2013-08-06 12:25:00,
2013-08-06 08:30:00,61.8,55.9,30.08,NW,325,0.0,0.0,81,0.00,,,0.00,WeatherCatV1.15B25,2013-08-06 12:30:00,
2013-08-06 08:35:00,62.2,56.3,30.08,NW,325,0.0,0.0,81,0.00,,,0.00,WeatherCatV1.15B25,2013-08-06 12:35:00,
2013-08-06 08:40:00,62.6,56.0,30.09,NW,325,0.0,0.0,79,0.00,,,0.00,WeatherCatV1.15B25,2013-08-06 12:40:00,
2013-08-06 08:45:00,63.0,55.3,30.09,NW,325,0.0,0.0,76,0.00,,,0.00,WeatherCatV1.15B25,2013-08-06 12:45:00,
2013-08-06 08:50:00,63.4,56.1,30.08,NW,325,0.0,0.0,77,0.00,,,0.00,WeatherCatV1.15B25,2013-08-06 12:50:00,
2013-08-06 08:55:00,63.7,57.1,30.08,NW,325,0.0,0.0,79,0.00,,,0.00,WeatherCatV1.15B25,2013-08-06 12:55:00,
2013-08-06 09:00:00,63.8,57.2,30.08,NW,325,0.0,0.0,79,0.00,,,0.00,WeatherCatV1.15B25,2013-08-06 13:00:00,
2013-08-06 09:05:00,64.0,57.0,30.08,NW,325,0.0,0.0,78,0.00,,,0.00,WeatherCatV1.15B25,2013-08-06 13:05:00,
2013-08-06 09:10:00,64.3,56.2,30.08,NW,325,0.0,1.0,75,0.00,,,0.00,WeatherCatV1.15B25,2013-08-06 13:10:00,
2013-08-06 09:15:00,64.6,57.2,30.08,NW,325,0.0,0.0,77,0.00,,,0.00,WeatherCatV1.15B25,2013-08-06 13:15:00,
2013-08-06 09:20:00,64.8,56.7,30.08,NW,325,0.0,2.0,75,0.00,,,0.00,WeatherCatV1.15B25,2013-08-06 13:20:00,
2013-08-06 09:25:00,65.0,57.6,30.08,NW,325,0.0,0.0,77,0.00,,,0.00,WeatherCatV1.15B25,2013-08-06 13:25:00,
2013-08-06 09:30:00,65.3,56.0,30.09,NW,325,0.0,2.0,72,0.00,,,0.00,WeatherCatV1.15B25,2013-08-06 13:30:00,
2013-08-06 09:35:00,65.4,56.9,30.09,ESE,123,0.0,0.0,74,0.00,,,0.00,WeatherCatV1.15B25,2013-08-06 13:35:00,
2013-08-06 09:40:00,65.7,57.2,30.09,SE,125,0.0,0.0,74,0.00,,,0.00,WeatherCatV1.15B25,2013-08-06 13:40:00,
2013-08-06 09:45:00,65.8,57.3,30.08,SE,128,0.0,1.0,74,0.00,,,0.00,WeatherCatV1.15B25,2013-08-06 13:45:00,
2013-08-06 09:50:00,66.0,57.1,30.08,ESE,120,0.0,3.0,73,0.00,,,0.00,WeatherCatV1.15B25,2013-08-06 13:50:00,
2013-08-06 09:55:00,66.4,58.6,30.09,ESE,119,0.0,0.0,76,0.00,,,0.00,WeatherCatV1.15B25,2013-08-06 13:55:00,
2013-08-06 10:00:00,66.8,58.6,30.09,ESE,120,0.0,0.0,75,0.00,,,0.00,WeatherCatV1.15B25,2013-08-06 14:00:00,
2013-08-06 10:05:00,67.1,58.5,30.09,ESE,120,0.0,0.0,74,0.00,,,0.00,WeatherCatV1.15B25,2013-08-06 14:05:00,
2013-08-06 10:10:00,67.4,58.4,30.09,ESE,119,0.0,0.0,73,0.00,,,0.00,WeatherCatV1.15B25,2013-08-06 14:10:00,
2013-08-06 10:15:00,67.7,58.3,30.09,ESE,119,0.0,0.0,72,0.00,,,0.00,WeatherCatV1.15B25,2013-08-06 14:15:00,
2013-08-06 10:20:00,68.0,59.0,30.09,SE,136,0.0,0.0,73,0.00,,,0.00,WeatherCatV1.15B25,2013-08-06 14:20:00,
2013-08-06 10:25:00,68.3,58.9,30.09,SE,136,0.0,0.0,72,0.00,,,0.00,WeatherCatV1.15B25,2013-08-06 14:25:00,
2013-08-06 10:30:00,68.5,57.5,30.09,SE,136,0.0,0.0,68,0.00,,,0.00,WeatherCatV1.15B25,2013-08-06 14:30:00,
2013-08-06 10:35:00,68.7,59.3,30.09,WSW,249,0.0,0.0,72,0.00,,,0.00,WeatherCatV1.15B25,2013-08-06 14:35:00,
2013-08-06 10:40:00,69.0,58.4,30.09,SSW,206,0.0,0.0,69,0.00,,,0.00,WeatherCatV1.15B25,2013-08-06 14:40:00,
2013-08-06 10:45:00,69.2,57.8,30.09,ESE,110,0.0,0.0,67,0.00,,,0.00,WeatherCatV1.15B25,2013-08-06 14:45:00,
2013-08-06 10:50:00,69.5,57.2,30.09,ESE,110,0.0,1.0,65,0.00,,,0.00,WeatherCatV1.15B25,2013-08-06 14:50:00,
2013-08-06 10:55:00,69.9,58.4,30.09,ESE,109,0.0,0.0,67,0.00,,,0.00,WeatherCatV1.15B25,2013-08-06 14:55:00,
2013-08-06 11:00:00,70.2,58.7,30.09,ESE,109,0.0,0.0,67,0.00,,,0.00,WeatherCatV1.15B25,2013-08-06 15:00:00,
2013-08-06 11:05:00,70.5,59.0,30.09,ESE,109,0.0,1.0,67,0.00,,,0.00,WeatherCatV1.15B25,2013-08-06 15:05:00,
2013-08-06 11:10:00,71.0,59.1,30.09,ESE,109,0.0,0.0,66,0.00,,,0.00,WeatherCatV1.15B25,2013-08-06 15:10:00,
2013-08-06 11:15:00,71.4,59.4,30.09,ESE,109,0.0,0.0,66,0.00,,,0.00,WeatherCatV1.15B25,2013-08-06 15:15:00,
2013-08-06 11:16:00,71.5,59.1,30.09,ESE,109,0.0,0.0,65,0.00,,,0.00,WeatherCatV1.15B25,2013-08-06 15:16:00,
2013-08-06 11:21:00,71.9,59.0,30.10,ESE,109,0.0,0.0,64,0.00,,,0.00,WeatherCatV1.15B25,2013-08-06 15:21:00,
2013-08-06 11:26:00,72.1,58.8,30.10,South,171,0.0,1.0,63,0.00,,,0.00,WeatherCatV1.15B25,2013-08-06 15:26:00,
2013-08-06 11:31:00,72.4,57.7,30.10,South,171,0.0,0.0,60,0.00,,,0.00,WeatherCatV1.15B25,2013-08-06 15:31:00,
2013-08-06 11:36:00,72.7,60.2,30.10,South,169,0.0,0.0,65,0.00,,,0.00,WeatherCatV1.15B25,2013-08-06 15:36:00,
2013-08-06 11:41:00,72.8,59.5,30.10,WSW,242,0.0,1.0,63,0.00,,,0.00,WeatherCatV1.15B25,2013-08-06 15:41:00,
2013-08-06 11:46:00,72.6,58.8,30.10,WSW,242,0.0,0.0,62,0.00,,,0.00,WeatherCatV1.15B25,2013-08-06 15:46:00,
2013-08-06 11:51:00,72.2,59.8,30.10,WSW,242,0.0,0.0,65,0.00,,,0.00,WeatherCatV1.15B25,2013-08-06 15:51:00,
2013-08-06 11:56:00,71.9,59.9,30.10,WSW,242,0.0,0.0,66,0.00,,,0.00,WeatherCatV1.15B25,2013-08-06 15:56:00,
2013-08-06 12:01:00,72.0,59.6,30.10,WSW,242,0.0,0.0,65,0.00,,,0.00,WeatherCatV1.15B25,2013-08-06 16:01:00,
2013-08-06 12:06:00,72.2,60.2,30.10,WSW,242,0.0,0.0,66,0.00,,,0.00,WeatherCatV1.15B25,2013-08-06 16:06:00,
2013-08-06 12:11:00,72.7,58.9,30.10,WSW,242,0.0,0.0,62,0.00,,,0.00,WeatherCatV1.15B25,2013-08-06 16:11:00,
2013-08-06 12:16:00,73.0,58.7,30.10,WSW,242,0.0,1.0,61,0.00,,,0.00,WeatherCatV1.15B25,2013-08-06 16:16:00,
2013-08-06 12:21:00,73.3,57.1,30.10,NW,315,0.0,0.0,57,0.00,,,0.00,WeatherCatV1.15B25,2013-08-06 16:21:00,
2013-08-06 12:26:00,73.6,57.4,30.10,West,276,0.0,1.0,57,0.00,,,0.00,WeatherCatV1.15B25,2013-08-06 16:26:00,
2013-08-06 12:31:00,73.9,57.2,30.10,West,276,0.0,0.0,56,0.00,,,0.00,WeatherCatV1.15B25,2013-08-06 16:31:00,
2013-08-06 12:36:00,74.1,57.4,30.10,West,276,0.0,0.0,56,0.00,,,0.00,WeatherCatV1.15B25,2013-08-06 16:36:00,
2013-08-06 12:41:00,74.2,58.0,30.10,West,276,0.0,0.0,57,0.00,,,0.00,WeatherCatV1.15B25,2013-08-06 16:41:00,
2013-08-06 12:46:00,74.4,59.6,30.10,West,276,1.0,1.0,60,0.00,,,0.00,WeatherCatV1.15B25,2013-08-06 16:46:00,
2013-08-06 12:51:00,74.6,58.3,30.10,West,275,0.0,1.0,57,0.00,,,0.00,WeatherCatV1.15B25,2013-08-06 16:51:00,
2013-08-06 12:56:00,74.7,56.9,30.10,West,275,0.0,0.0,54,0.00,,,0.00,WeatherCatV1.15B25,2013-08-06 16:56:00,
2013-08-06 13:01:00,74.7,58.4,30.10,WSW,244,0.0,0.0,57,0.00,,,0.00,WeatherCatV1.15B25,2013-08-06 17:01:00,
2013-08-06 13:06:00,74.8,57.0,30.10,WNW,283,0.0,1.0,54,0.00,,,0.00,WeatherCatV1.15B25,2013-08-06 17:06:00,
2013-08-06 13:11:00,74.9,59.6,30.10,WNW,283,0.0,0.0,59,0.00,,,0.00,WeatherCatV1.15B25,2013-08-06 17:11:00,
2013-08-06 13:16:00,74.8,58.5,30.10,WNW,283,0.0,0.0,57,0.00,,,0.00,WeatherCatV1.15B25,2013-08-06 17:16:00,
2013-08-06 13:21:00,74.5,59.2,30.10,WNW,283,0.0,0.0,59,0.00,,,0.00,WeatherCatV1.15B25,2013-08-06 17:21:00,
2013-08-06 13:26:00,74.3,58.5,30.09,ESE,114,0.0,1.0,58,0.00,,,0.00,WeatherCatV1.15B25,2013-08-06 17:26:00,
2013-08-06 13:31:00,74.1,57.9,30.09,WSW,247,0.0,1.0,57,0.00,,,0.00,WeatherCatV1.15B25,2013-08-06 17:31:00,
2013-08-06 13:36:00,74.2,58.0,30.09,WSW,251,0.0,1.0,57,0.00,,,0.00,WeatherCatV1.15B25,2013-08-06 17:36:00,
2013-08-06 13:41:00,74.1,58.4,30.09,WSW,251,0.0,1.0,58,0.00,,,0.00,WeatherCatV1.15B25,2013-08-06 17:41:00,
2013-08-06 13:46:00,74.4,57.2,30.09,WSW,252,0.0,2.0,55,0.00,,,0.00,WeatherCatV1.15B25,2013-08-06 17:46:00,
2013-08-06 13:51:00,74.7,59.4,30.09,WSW,249,0.0,0.0,59,0.00,,,0.00,WeatherCatV1.15B25,2013-08-06 17:51:00,
2013-08-06 13:56:00,74.8,58.5,30.09,SE,132,0.0,2.0,57,0.00,,,0.00,WeatherCatV1.15B25,2013-08-06 17:56:00,
2013-08-06 14:01:00,74.9,58.1,30.09,SW,225,0.0,2.0,56,0.00,,,0.00,WeatherCatV1.15B25,2013-08-06 18:01:00,
2013-08-06 14:06:00,74.8,57.5,30.09,SW,235,0.0,0.0,55,0.00,,,0.00,WeatherCatV1.15B25,2013-08-06 18:06:00,
2013-08-06 14:11:00,74.8,58.0,30.08,WNW,286,0.0,1.0,56,0.00,,,0.00,WeatherCatV1.15B25,2013-08-06 18:11:00,
2013-08-06 14:16:00,74.8,59.0,30.08,West,271,0.0,0.0,58,0.00,,,0.00,WeatherCatV1.15B25,2013-08-06 18:16:00,
2013-08-06 14:21:00,74.6,57.3,30.08,West,271,0.0,0.0,55,0.00,,,0.00,WeatherCatV1.15B25,2013-08-06 18:21:00,
2013-08-06 14:26:00,73.9,58.2,30.08,West,271,0.0,0.0,58,0.00,,,0.00,WeatherCatV1.15B25,2013-08-06 18:26:00,
2013-08-06 14:31:00,73.4,58.7,30.08,ESE,107,0.0,2.0,60,0.00,,,0.00,WeatherCatV1.15B25,2013-08-06 18:31:00,
2013-08-06 14:36:00,73.4,59.6,30.08,West,267,0.0,0.0,62,0.00,,,0.00,WeatherCatV1.15B25,2013-08-06 18:36:00,
2013-08-06 14:41:00,73.6,58.4,30.08,SSE,162,0.0,1.0,59,0.00,,,0.00,WeatherCatV1.15B25,2013-08-06 18:41:00,
2013-08-06 14:46:00,73.8,59.5,30.08,WSW,237,0.0,0.0,61,0.00,,,0.00,WeatherCatV1.15B25,2013-08-06 18:46:00,
2013-08-06 14:51:00,73.6,57.9,30.08,ESE,114,0.0,0.0,58,0.00,,,0.00,WeatherCatV1.15B25,2013-08-06 18:51:00,
2013-08-06 14:56:00,73.1,58.4,30.08,ESE,114,0.0,0.0,60,0.00,,,0.00,WeatherCatV1.15B25,2013-08-06 18:56:00,
2013-08-06 15:01:00,72.3,59.4,30.08,ESE,114,0.0,0.0,64,0.00,,,0.00,WeatherCatV1.15B25,2013-08-06 19:01:00,
2013-08-06 15:06:00,71.9,59.9,30.08,ESE,114,0.0,0.0,66,0.00,,,0.00,WeatherCatV1.15B25,2013-08-06 19:06:00,
2013-08-06 15:12:00,71.9,59.5,30.08,ESE,114,0.0,0.0,65,0.00,,,0.00,WeatherCatV1.15B25,2013-08-06 19:12:00,
2013-08-06 15:17:00,72.4,60.0,30.08,ESE,114,0.0,0.0,65,0.00,,,0.00,WeatherCatV1.15B25,2013-08-06 19:17:00,
2013-08-06 15:21:00,73.1,60.6,30.08,SW,225,0.0,1.0,65,0.00,,,0.00,WeatherCatV1.15B25,2013-08-06 19:21:00,
2013-08-06 15:26:00,73.6,60.2,30.08,WNW,284,0.0,1.0,63,0.00,,,0.00,WeatherCatV1.15B25,2013-08-06 19:26:00,
2013-08-06 15:31:00,74.1,61.1,30.07,WNW,283,0.0,0.0,64,0.00,,,0.00,WeatherCatV1.15B25,2013-08-06 19:31:00,
2013-08-06 15:36:00,74.1,59.8,30.08,East,94,0.0,1.0,61,0.00,,,0.00,WeatherCatV1.15B25,2013-08-06 19:36:00,
2013-08-06 15:41:00,73.8,58.6,30.08,ESE,123,0.0,4.0,59,0.00,,,0.00,WeatherCatV1.15B25,2013-08-06 19:41:00,
2013-08-06 15:46:00,73.4,57.7,30.08,ESE,123,0.0,0.0,58,0.00,,,0.00,WeatherCatV1.15B25,2013-08-06 19:46:00,
2013-08-06 15:51:00,72.7,58.9,30.08,ESE,123,0.0,0.0,62,0.00,,,0.00,WeatherCatV1.15B25,2013-08-06 19:51:00,
2013-08-06 15:56:00,72.3,58.5,30.08,ESE,123,0.0,0.0,62,0.00,,,0.00,WeatherCatV1.15B25,2013-08-06 19:56:00,
2013-08-06 16:01:00,71.9,58.2,30.08,ESE,123,0.0,1.0,62,0.00,,,0.00,WeatherCatV1.15B25,2013-08-06 20:01:00,
2013-08-06 16:06:00,71.7,58.4,30.08,ESE,123,0.0,0.0,63,0.00,,,0.00,WeatherCatV1.15B25,2013-08-06 20:06:00,
2013-08-06 16:11:00,71.9,58.6,30.08,ESE,123,0.0,0.0,63,0.00,,,0.00,WeatherCatV1.15B25,2013-08-06 20:11:00,
2013-08-06 16:16:00,72.2,58.4,30.08,ESE,123,0.0,1.0,62,0.00,,,0.00,WeatherCatV1.15B25,2013-08-06 20:16:00,
2013-08-06 16:21:00,72.3,58.5,30.08,ESE,114,0.0,1.0,62,0.00,,,0.00,WeatherCatV1.15B25,2013-08-06 20:21:00,
2013-08-06 16:26:00,72.1,58.8,30.08,SE,127,0.0,3.0,63,0.00,,,0.00,WeatherCatV1.15B25,2013-08-06 20:26:00,
2013-08-06 16:31:00,71.6,59.6,30.08,ESE,107,0.0,1.0,66,0.00,,,0.00,WeatherCatV1.15B25,2013-08-06 20:31:00,
2013-08-06 16:36:00,71.1,60.0,30.08,ESE,114,0.0,1.0,68,0.00,,,0.00,WeatherCatV1.15B25,2013-08-06 20:36:00,
2013-08-06 16:41:00,70.6,59.9,30.08,ESE,110,0.0,1.0,69,0.00,,,0.00,WeatherCatV1.15B25,2013-08-06 20:41:00,
2013-08-06 16:46:00,70.4,60.1,30.08,ESE,117,0.0,1.0,70,0.00,,,0.00,WeatherCatV1.15B25,2013-08-06 20:46:00,
2013-08-06 16:51:00,70.3,59.6,30.08,ESE,113,0.0,0.0,69,0.00,,,0.00,WeatherCatV1.15B25,2013-08-06 20:51:00,
2013-08-06 16:56:00,70.3,60.0,30.08,ESE,113,0.0,0.0,70,0.00,,,0.00,WeatherCatV1.15B25,2013-08-06 20:56:00,
2013-08-06 17:01:00,70.1,60.2,30.08,ESE,114,0.0,2.0,71,0.00,,,0.00,WeatherCatV1.15B25,2013-08-06 21:01:00,
2013-08-06 17:06:00,69.9,60.1,30.08,ESE,114,0.0,0.0,71,0.00,,,0.00,WeatherCatV1.15B25,2013-08-06 21:06:00,
2013-08-06 17:11:00,69.7,60.6,30.08,ESE,114,0.0,0.0,73,0.00,,,0.00,WeatherCatV1.15B25,2013-08-06 21:11:00,
2013-08-06 17:16:00,69.7,60.6,30.08,ESE,114,0.0,0.0,73,0.00,,,0.00,WeatherCatV1.15B25,2013-08-06 21:16:00,
2013-08-06 17:21:00,69.7,60.3,30.08,ESE,115,1.0,2.0,72,0.00,,,0.00,WeatherCatV1.15B25,2013-08-06 21:21:00,
2013-08-06 17:26:00,69.7,60.3,30.08,ESE,115,0.0,0.0,72,0.00,,,0.00,WeatherCatV1.15B25,2013-08-06 21:26:00,
2013-08-06 17:31:00,69.8,61.1,30.08,ESE,115,0.0,0.0,74,0.00,,,0.00,WeatherCatV1.15B25,2013-08-06 21:31:00,
2013-08-06 17:36:00,69.8,60.7,30.08,ESE,115,0.0,0.0,73,0.00,,,0.00,WeatherCatV1.15B25,2013-08-06 21:36:00,
2013-08-06 17:41:00,70.1,61.0,30.08,ESE,115,0.0,1.0,73,0.00,,,0.00,WeatherCatV1.15B25,2013-08-06 21:41:00,
2013-08-06 17:46:00,70.3,60.8,30.08,SE,132,0.0,3.0,72,0.00,,,0.00,WeatherCatV1.15B25,2013-08-06 21:46:00,
2013-08-06 17:51:00,70.3,60.4,30.08,SE,140,0.0,0.0,71,0.00,,,0.00,WeatherCatV1.15B25,2013-08-06 21:51:00,
2013-08-06 17:56:00,70.3,60.8,30.08,ESE,110,0.0,0.0,72,0.00,,,0.00,WeatherCatV1.15B25,2013-08-06 21:56:00,
2013-08-06 18:01:00,70.1,60.2,30.08,ESE,110,0.0,0.0,71,0.00,,,0.00,WeatherCatV1.15B25,2013-08-06 22:01:00,
2013-08-06 18:06:00,70.0,60.5,30.08,SE,128,0.0,0.0,72,0.00,,,0.00,WeatherCatV1.15B25,2013-08-06 22:06:00,
2013-08-06 18:11:00,69.9,60.1,30.08,ESE,115,0.0,1.0,71,0.00,,,0.00,WeatherCatV1.15B25,2013-08-06 22:11:00,
2013-08-06 18:16:00,69.7,59.9,30.08,ESE,116,0.0,0.0,71,0.00,,,0.00,WeatherCatV1.15B25,2013-08-06 22:16:00,
2013-08-06 18:21:00,69.4,59.6,30.08,ESE,116,0.0,0.0,71,0.00,,,0.00,WeatherCatV1.15B25,2013-08-06 22:21:00,
2013-08-06 18:26:00,69.2,59.8,30.08,West,270,1.0,1.0,72,0.00,,,0.00,WeatherCatV1.15B25,2013-08-06 22:26:00,
2013-08-06 18:31:00,68.9,59.5,30.08,West,270,0.0,0.0,72,0.00,,,0.00,WeatherCatV1.15B25,2013-08-06 22:31:00,
2013-08-06 18:36:00,68.7,59.7,30.08,ESE,109,0.0,0.0,73,0.00,,,0.00,WeatherCatV1.15B25,2013-08-06 22:36:00,
2013-08-06 18:41:00,68.5,59.5,30.08,ESE,109,0.0,0.0,73,0.00,,,0.00,WeatherCatV1.15B25,2013-08-06 22:41:00,
2013-08-06 18:46:00,68.4,59.8,30.08,ESE,109,0.0,0.0,74,0.00,,,0.00,WeatherCatV1.15B25,2013-08-06 22:46:00,
2013-08-06 18:51:00,68.3,59.7,30.08,ESE,109,0.0,0.0,74,0.00,,,0.00,WeatherCatV1.15B25,2013-08-06 22:51:00,
2013-08-06 18:56:00,68.2,60.0,30.08,ESE,109,0.0,1.0,75,0.00,,,0.00,WeatherCatV1.15B25,2013-08-06 22:56:00,
2013-08-06 19:01:00,68.0,60.1,30.08,ESE,109,0.0,0.0,76,0.00,,,0.00,WeatherCatV1.15B25,2013-08-06 23:01:00,
2013-08-06 19:06:00,67.9,60.4,30.08,ESE,109,0.0,0.0,77,0.00,,,0.00,WeatherCatV1.15B25,2013-08-06 23:06:00,
2013-08-06 19:11:00,67.6,60.5,30.09,ESE,109,0.0,0.0,78,0.00,,,0.00,WeatherCatV1.15B25,2013-08-06 23:11:00,
2013-08-06 19:16:00,67.3,60.6,30.09,ESE,109,0.0,0.0,79,0.00,,,0.00,WeatherCatV1.15B25,2013-08-06 23:16:00,
2013-08-06 19:21:00,67.0,60.3,30.09,ESE,107,0.0,0.0,79,0.00,,,0.00,WeatherCatV1.15B25,2013-08-06 23:21:00,
2013-08-06 19:26:00,66.8,59.7,30.09,ESE,107,0.0,0.0,78,0.00,,,0.00,WeatherCatV1.15B25,2013-08-06 23:26:00,
2013-08-06 19:31:00,66.6,59.5,30.09,ESE,107,0.0,0.0,78,0.00,,,0.00,WeatherCatV1.15B25,2013-08-06 23:31:00,
2013-08-06 19:36:00,66.5,58.7,30.09,East,99,0.0,0.0,76,0.00,,,0.00,WeatherCatV1.15B25,2013-08-06 23:36:00,
2013-08-06 19:41:00,66.5,58.7,30.09,East,98,0.0,0.0,76,0.00,,,0.00,WeatherCatV1.15B25,2013-08-06 23:41:00,
2013-08-06 19:46:00,66.5,58.7,30.09,East,98,0.0,0.0,76,0.00,,,0.00,WeatherCatV1.15B25,2013-08-06 23:46:00,
2013-08-06 19:51:00,66.6,58.4,30.09,East,101,0.0,0.0,75,0.00,,,0.00,WeatherCatV1.15B25,2013-08-06 23:51:00,
2013-08-06 19:56:00,66.6,58.0,30.09,East,101,0.0,0.0,74,0.00,,,0.00,WeatherCatV1.15B25,2013-08-06 23:56:00,
2013-08-06 20:01:00,66.7,57.8,30.09,East,101,0.0,0.0,73,0.00,,,0.00,WeatherCatV1.15B25,2013-08-07 00:01:00,
2013-08-06 20:06:00,66.8,57.9,30.09,WNW,291,1.0,1.0,73,0.00,,,0.00,WeatherCatV1.15B25,2013-08-07 00:06:00,
2013-08-06 20:11:00,66.8,57.9,30.09,WNW,292,0.0,1.0,73,0.00,,,0.00,WeatherCatV1.15B25,2013-08-07 00:11:00,
2013-08-06 20:16:00,66.8,57.9,30.09,WNW,291,0.0,0.0,73,0.00,,,0.00,WeatherCatV1.15B25,2013-08-07 00:16:00,
2013-08-06 20:21:00,66.7,57.8,30.09,West,267,0.0,1.0,73,0.00,,,0.00,WeatherCatV1.15B25,2013-08-07 00:21:00,
2013-08-06 20:26:00,66.7,57.8,30.09,ENE,69,0.0,0.0,73,0.00,,,0.00,WeatherCatV1.15B25,2013-08-07 00:26:00,
2013-08-06 20:31:00,66.6,57.7,30.09,East,79,0.0,0.0,73,0.00,,,0.00,WeatherCatV1.15B25,2013-08-07 00:31:00,
2013-08-06 20:36:00,66.4,57.5,30.09,East,79,0.0,0.0,73,0.00,,,0.00,WeatherCatV1.15B25,2013-08-07 00:36:00,
2013-08-06 20:41:00,66.2,57.7,30.09,SSE,158,0.0,2.0,74,0.00,,,0.00,WeatherCatV1.15B25,2013-08-07 00:41:00,
2013-08-06 20:46:00,66.0,57.5,30.09,SE,127,0.0,1.0,74,0.00,,,0.00,WeatherCatV1.15B25,2013-08-07 00:46:00,
2013-08-06 20:51:00,65.8,57.3,30.09,ESE,119,0.0,1.0,74,0.00,,,0.00,WeatherCatV1.15B25,2013-08-07 00:51:00,
2013-08-06 20:56:00,65.5,57.4,30.09,ESE,114,0.0,0.0,75,0.00,,,0.00,WeatherCatV1.15B25,2013-08-07 00:56:00,
2013-08-06 21:01:00,65.3,57.2,30.09,ESE,121,0.0,0.0,75,0.00,,,0.00,WeatherCatV1.15B25,2013-08-07 01:01:00,
2013-08-06 21:06:00,65.1,57.3,30.09,ESE,102,0.0,0.0,76,0.00,,,0.00,WeatherCatV1.15B25,2013-08-07 01:06:00,
2013-08-06 21:11:00,64.9,57.1,30.10,ESE,103,0.0,1.0,76,0.00,,,0.00,WeatherCatV1.15B25,2013-08-07 01:11:00,
2013-08-06 21:16:00,64.8,57.0,30.10,ESE,103,0.0,1.0,76,0.00,,,0.00,WeatherCatV1.15B25,2013-08-07 01:16:00,
2013-08-06 21:21:00,64.7,57.0,30.10,ESE,109,0.0,0.0,76,0.00,,,0.00,WeatherCatV1.15B25,2013-08-07 01:21:00,
2013-08-06 21:26:00,64.7,57.0,30.10,ESE,113,0.0,1.0,76,0.00,,,0.00,WeatherCatV1.15B25,2013-08-07 01:26:00,
2013-08-06 21:31:00,64.5,57.1,30.10,ESE,121,0.0,1.0,77,0.00,,,0.00,WeatherCatV1.15B25,2013-08-07 01:31:00,
2013-08-06 21:36:00,64.5,57.1,30.10,ESE,119,0.0,0.0,77,0.00,,,0.00,WeatherCatV1.15B25,2013-08-07 01:36:00,
2013-08-06 21:41:00,64.4,57.4,30.10,ESE,110,0.0,0.0,78,0.00,,,0.00,WeatherCatV1.15B25,2013-08-07 01:41:00,
2013-08-06 21:46:00,64.3,57.3,30.10,ESE,110,0.0,0.0,78,0.00,,,0.00,WeatherCatV1.15B25,2013-08-07 01:46:00,
2013-08-06 21:51:00,64.1,57.1,30.10,ESE,109,0.0,0.0,78,0.00,,,0.00,WeatherCatV1.15B25,2013-08-07 01:51:00,
2013-08-06 21:56:00,64.0,57.3,30.10,East,97,0.0,1.0,79,0.00,,,0.00,WeatherCatV1.15B25,2013-08-07 01:56:00,
2013-08-06 22:01:00,63.9,57.6,30.10,East,97,0.0,0.0,80,0.00,,,0.00,WeatherCatV1.15B25,2013-08-07 02:01:00,
2013-08-06 22:06:00,63.8,57.5,30.10,East,96,0.0,0.0,80,0.00,,,0.00,WeatherCatV1.15B25,2013-08-07 02:06:00,
2013-08-06 22:11:00,63.7,57.8,30.10,East,92,0.0,0.0,81,0.00,,,0.00,WeatherCatV1.15B25,2013-08-07 02:11:00,
2013-08-06 22:16:00,63.6,57.7,30.10,East,92,0.0,0.0,81,0.00,,,0.00,WeatherCatV1.15B25,2013-08-07 02:16:00,
2013-08-06 22:21:00,63.5,57.9,30.10,East,93,0.0,0.0,82,0.00,,,0.00,WeatherCatV1.15B25,2013-08-07 02:21:00,
2013-08-06 22:26:00,63.4,57.8,30.10,East,93,0.0,0.0,82,0.00,,,0.00,WeatherCatV1.15B25,2013-08-07 02:26:00,
2013-08-06 22:31:00,63.3,57.7,30.10,East,93,0.0,0.0,82,0.00,,,0.00,WeatherCatV1.15B25,2013-08-07 02:31:00,
2013-08-06 22:36:00,63.2,57.9,30.10,East,95,0.0,1.0,83,0.00,,,0.00,WeatherCatV1.15B25,2013-08-07 02:36:00,
2013-08-06 22:41:00,63.0,58.1,30.10,East,95,0.0,0.0,84,0.00,,,0.00,WeatherCatV1.15B25,2013-08-07 02:41:00,
2013-08-06 22:46:00,63.0,58.1,30.10,East,95,0.0,0.0,84,0.00,,,0.00,WeatherCatV1.15B25,2013-08-07 02:46:00,
2013-08-06 22:51:00,62.9,58.0,30.10,SE,130,0.0,0.0,84,0.00,,,0.00,WeatherCatV1.15B25,2013-08-07 02:51:00,
2013-08-06 22:56:00,62.9,58.0,30.10,ESE,119,0.0,0.0,84,0.00,,,0.00,WeatherCatV1.15B25,2013-08-07 02:56:00,
2013-08-06 23:01:00,62.8,58.2,30.10,ESE,102,0.0,1.0,85,0.00,,,0.00,WeatherCatV1.15B25,2013-08-07 03:01:00,
2013-08-06 23:06:00,62.7,58.1,30.10,ESE,103,0.0,0.0,85,0.00,,,0.00,WeatherCatV1.15B25,2013-08-07 03:06:00,
2013-08-06 23:11:00,62.7,58.4,30.10,ESE,103,0.0,1.0,86,0.00,,,0.00,WeatherCatV1.15B25,2013-08-07 03:11:00,
2013-08-06 23:16:00,62.6,58.3,30.10,East,83,0.0,0.0,86,0.00,,,0.00,WeatherCatV1.15B25,2013-08-07 03:16:00,
2013-08-06 23:21:00,62.5,58.2,30.10,East,83,0.0,0.0,86,0.00,,,0.00,WeatherCatV1.15B25,2013-08-07 03:21:00,
2013-08-06 23:26:00,62.4,58.2,30.10,East,83,0.0,1.0,86,0.00,,,0.00,WeatherCatV1.15B25,2013-08-07 03:26:00,
2013-08-06 23:31:00,62.4,58.2,30.10,East,83,0.0,0.0,86,0.00,,,0.00,WeatherCatV1.15B25,2013-08-07 03:31:00,
2013-08-06 23:36:00,62.3,58.4,30.10,East,83,0.0,0.0,87,0.00,,,0.00,WeatherCatV1.15B25,2013-08-07 03:36:00,
2013-08-06 23:41:00,62.3,58.4,30.10,East,83,0.0,0.0,87,0.00,,,0.00,WeatherCatV1.15B25,2013-08-07 03:41:00,
2013-08-06 23:46:00,62.2,58.3,30.11,East,84,0.0,0.0,87,0.00,,,0.00,WeatherCatV1.15B25,2013-08-07 03:46:00,
2013-08-06 23:51:00,62.2,58.3,30.11,NE,54,0.0,0.0,87,0.00,,,0.00,WeatherCatV1.15B25,2013-08-07 03:51:00,
2013-08-06 23:56:00,62.2,58.6,30.11,East,98,0.0,0.0,88,0.00,,,0.00,WeatherCatV1.15B25,2013-08-07 03:56:00,